GW1348 Weather Reports


Display with metric or nautical units.
time (UTC)temp
F
wind
direction
speed
MPH
gust
MPH
rain 1hr
in
rain 24hr
in
rain mn
in
humidity
%
barometer
mb
20260505090056 39 108 3.0 9.0 0.01 0.10 0.09 73 1006.7
20260505085530 38 82 2.0 5.0 0.02 0.10 0.09 74 1006.8
20260505085032 38 122 2.0 6.0 0.02 0.10 0.09 74 1006.6
20260505084549 38 107 2.0 7.0 0.02 0.10 0.09 74 1006.6
20260505084029 38 3 2.0 7.0 0.03 0.10 0.09 74 1006.5
20260505083529 38 250 3.0 8.0 0.03 0.10 0.09 73 1006.5
20260505083049 39 224 3.0 9.0 0.04 0.10 0.09 72 1006.4
20260505082530 38 117 4.0 10.0 0.04 0.10 0.09 73 1006.3
20260505082030 39 5 3.0 10.0 0.05 0.10 0.09 73 1006.2
20260505081548 39 195 5.0 11.0 0.04 0.09 0.08 73 1006.2
20260505081034 39 139 3.0 11.0 0.05 0.09 0.08 74 1006.2
20260505080530 39 93 3.0 7.0 0.05 0.09 0.08 73 1006.2
20260505080053 39 108 2.0 7.0 0.06 0.09 0.08 76 1006.2
20260505075532 39 150 2.0 7.0 0.05 0.09 0.07 76 1006.3
20260505075029 39 104 2.0 6.0 0.06 0.09 0.07 76 1006.2
20260505074548 39 97 2.0 6.0 0.06 0.09 0.07 76 1006.1
20260505074030 39 163 3.0 6.0 0.06 0.08 0.06 77 1006.2
20260505073530 38 150 1.0 6.0 0.06 0.08 0.06 77 1006.1
20260505073044 38 14 2.0 9.0 0.05 0.07 0.05 78 1006.1
20260505072531 37 33 2.0 14.0 0.05 0.07 0.05 77 1006.0
20260505072030 37 120 3.0 14.0 0.04 0.06 0.04 79 1006.0
20260505071546 37 63 2.0 8.0 0.04 0.06 0.04 81 1006.0
20260505071030 37 128 2.0 9.0 0.03 0.05 0.03 80 1006.1
20260505070535 37 169 2.0 9.0 0.03 0.05 0.03 81 1006.0
20260505070046 37 173 4.0 12.0 0.02 0.04 0.02 80 1006.0
20260505065531 37 210 3.0 12.0 0.02 0.04 0.02 81 1005.9
20260505065034 36 151 3.0 10.0 0.01 0.03 0.01 80 1005.8
20260505064541 37 83 3.0 11.0 0.01 0.03 0.01 80 1005.9
20260505064030 37 166 3.0 11.0 0.00 0.02 0.00 80 1005.9
20260505063530 36 130 3.0 12.0 0.00 0.02 0.00 81 1005.9
20260505063040 36 311 4.0 12.0 0.00 0.02 0.00 81 1005.9
20260505062533 36 74 2.0 6.0 0.00 0.02 0.00 81 1005.9
20260505062030 36 127 2.0 6.0 0.00 0.02 0.00 81 1005.8
20260505061548 35 127 2.0 6.0 0.00 0.02 0.00 82 1005.7
20260505061032 35 6 1.0 6.0 0.00 0.02 0.00 84 1005.7
20260505060530 35 159 2.0 6.0 0.00 0.02 0.00 85 1005.5
20260505060045 34 255 2.0 7.0 0.00 0.02 0.00 86 1005.5
20260505055533 33 113 2.0 7.0 0.00 0.06 0.00 87 1005.4
20260505055031 33 96 1.0 4.0 0.00 0.06 0.00 88 1005.3
20260505054545 33 0 0.0 4.0 0.00 0.06 0.00 88 1005.4
20260505054033 33 0 1.0 5.0 0.00 0.06 0.00 88 1005.4
20260505053531 33 146 1.0 8.0 0.00 0.06 0.00 87 1005.3
20260505053046 33 159 3.0 8.0 0.00 0.06 0.00 86 1005.5
20260505052531 34 37 0.0 5.0 0.00 0.06 0.00 86 1005.5
20260505052030 34 0 0.0 5.0 0.00 0.06 0.00 87 1005.4
20260505051540 34 127 1.0 4.0 0.00 0.06 0.00 88 1005.4
20260505051030 33 226 1.0 4.0 0.00 0.06 0.00 90 1005.4
20260505050534 32 203 0.0 2.0 0.00 0.06 0.00 91 1005.4
20260505041541 31 159 2.0 4.0 0.00 0.06 0.00 92 1005.2
20260505041029 31 140 1.0 4.0 0.00 0.06 0.00 92 1005.2
20260505040531 31 116 0.0 4.0 0.00 0.06 0.00 92 1005.1
20260505040049 31 136 1.0 4.0 0.00 0.06 0.00 92 1005.0
20260505035531 31 89 1.0 4.0 0.00 0.06 0.00 92 1005.0
20260505035030 31 154 1.0 3.0 0.00 0.06 0.00 92 1005.0
20260505034544 31 176 1.0 3.0 0.00 0.06 0.00 92 1004.9
20260505034030 31 134 0.0 3.0 0.00 0.06 0.00 92 1004.8
20260505033530 31 141 1.0 4.0 0.00 0.06 0.00 92 1004.8
20260505033104 31 150 2.0 4.0 0.00 0.06 0.00 92 1004.9
20260505032530 30 165 0.0 4.0 0.00 0.06 0.00 92 1004.8
20260505032029 30 114 0.0 4.0 0.00 0.06 0.00 91 1004.8
20260505031543 30 125 0.0 4.0 0.00 0.06 0.00 91 1004.8
20260505031032 30 0 1.0 4.0 0.00 0.06 0.00 91 1004.7
20260505030530 30 0 0.0 2.0 0.00 0.06 0.00 91 1004.7
20260505030043 31 215 1.0 2.0 0.00 0.06 0.00 91 1004.7
20260505025531 31 139 0.0 3.0 0.00 0.06 0.00 91 1004.7
20260505025030 31 0 0.0 3.0 0.00 0.06 0.00 91 1004.8
20260505024547 31 181 0.0 3.0 0.00 0.06 0.00 91 1004.8
20260505024030 31 141 0.0 4.0 0.00 0.06 0.00 91 1004.8
20260505023530 31 144 1.0 6.0 0.00 0.06 0.00 91 1004.9
20260505023058 31 155 1.0 6.0 0.00 0.06 0.00 91 1004.8
20260505022530 31 172 2.0 6.0 0.00 0.06 0.00 91 1004.8
20260505022029 31 153 2.0 6.0 0.00 0.06 0.00 92 1004.9
20260505021542 31 145 2.0 4.0 0.00 0.06 0.00 92 1004.9
20260505021033 31 142 1.0 4.0 0.00 0.06 0.00 92 1004.9
20260505020533 31 0 1.0 5.0 0.00 0.06 0.00 92 1004.8
20260505020050 31 212 1.0 5.0 0.00 0.06 0.00 91 1004.8
20260505015530 31 160 1.0 5.0 0.00 0.06 0.00 91 1004.8
20260505015030 31 0 0.0 3.0 0.00 0.06 0.00 91 1004.8
20260505014542 31 0 0.0 3.0 0.00 0.06 0.00 91 1004.9
20260505014033 31 0 0.0 3.0 0.00 0.06 0.00 91 1004.8
20260505013532 31 0 0.0 3.0 0.00 0.06 0.00 91 1004.8
20260505013047 31 243 1.0 4.0 0.00 0.06 0.00 91 1004.7
20260505012532 31 141 1.0 4.0 0.00 0.06 0.00 91 1004.6
20260505012030 31 142 1.0 3.0 0.00 0.06 0.00 92 1004.7
20260505011555 31 146 0.0 2.0 0.00 0.06 0.00 92 1004.6
20260505011030 31 0 0.0 1.0 0.00 0.06 0.00 92 1004.7
20260505010530 31 0 0.0 1.0 0.00 0.06 0.00 91 1004.6
20260505010045 31 148 0.0 2.0 0.00 0.06 0.00 90 1004.6
20260505005530 32 0 0.0 2.0 0.00 0.06 0.00 90 1004.6
20260505005030 32 145 0.0 3.0 0.00 0.06 0.00 90 1004.6
20260505004549 32 0 0.0 6.0 0.00 0.06 0.00 91 1004.5
20260505004030 32 132 1.0 6.0 0.00 0.06 0.00 91 1004.5
20260505003529 32 1 1.0 6.0 0.00 0.06 0.00 91 1004.5
20260505003042 31 204 1.0 5.0 0.00 0.06 0.00 92 1004.5
20260505002530 31 137 1.0 4.0 0.00 0.06 0.00 92 1004.4
20260505002031 31 0 1.0 3.0 0.00 0.06 0.00 92 1004.4
20260505001547 31 110 0.0 3.0 0.00 0.06 0.00 92 1004.2
20260505001034 31 0 0.0 3.0 0.00 0.06 0.00 92 1004.1
20260505000530 31 105 0.0 3.0 0.00 0.06 0.00 92 1004.2
20260505000049 31 139 1.0 3.0 0.00 0.06 0.00 92 1004.2
20260504235530 32 161 0.0 2.0 0.00 0.06 0.00 92 1004.2
20260504235030 32 163 1.0 2.0 0.00 0.06 0.00 92 1004.3
20260504234609 32 0 0.0 2.0 0.00 0.06 0.00 92 1004.4
20260504234032 32 149 0.0 2.0 0.00 0.06 0.00 92 1004.3
20260504233530 32 126 0.0 2.0 0.00 0.06 0.00 93 1004.4
20260504233043 32 148 0.0 2.0 0.00 0.06 0.00 93 1004.4
20260504232530 32 0 0.0 2.0 0.00 0.06 0.00 93 1004.2
20260504232029 32 153 0.0 2.0 0.00 0.06 0.00 92 1004.4
20260504231550 32 0 0.0 2.0 0.00 0.06 0.00 92 1004.2
20260504231032 32 0 0.0 3.0 0.00 0.06 0.00 92 1004.3
20260504230531 32 0 0.0 3.0 0.00 0.06 0.00 92 1004.5
20260504230043 32 219 1.0 3.0 0.00 0.06 0.00 92 1004.3
20260504225532 33 145 0.0 3.0 0.00 0.06 0.00 92 1004.3
20260504225034 32 90 0.0 3.0 0.00 0.06 0.00 92 1004.2
20260504224553 32 0 0.0 3.0 0.00 0.06 0.00 92 1004.0
20260504224030 32 0 0.0 4.0 0.00 0.06 0.00 92 1003.8
20260504223532 32 94 0.0 4.0 0.00 0.06 0.00 92 1003.9
20260504223041 32 193 2.0 6.0 0.00 0.06 0.00 92 1003.9
20260504222530 32 217 2.0 6.0 0.00 0.06 0.00 92 1003.8
20260504222030 32 20 2.0 6.0 0.00 0.06 0.00 92 1003.8
20260504221609 32 142 2.0 9.0 0.00 0.06 0.00 92 1003.7
20260504221032 32 94 1.0 9.0 0.00 0.06 0.00 92 1003.6
20260504220530 32 103 1.0 9.0 0.00 0.06 0.00 92 1003.5
20260504220047 32 39 2.0 9.0 0.00 0.06 0.00 91 1003.5
20260504215529 33 38 2.0 9.0 0.00 0.06 0.06 91 1003.4
20260504215031 33 222 2.0 6.0 0.00 0.06 0.06 91 1003.3
20260504214548 33 78 1.0 6.0 0.00 0.06 0.06 91 1003.5
20260504214032 33 122 2.0 6.0 0.00 0.06 0.06 90 1003.4
20260504213531 33 154 1.0 6.0 0.00 0.06 0.06 90 1003.4
20260504213048 33 139 1.0 6.0 0.00 0.06 0.06 90 1003.3
20260504212531 33 128 0.0 7.0 0.00 0.06 0.06 90 1003.2
20260504212034 33 141 1.0 7.0 0.00 0.06 0.06 89 1003.1
20260504211540 33 11 1.0 4.0 0.00 0.06 0.06 89 1003.0
20260504211030 34 0 1.0 4.0 0.00 0.06 0.06 89 1003.1
20260504210530 34 213 1.0 4.0 0.00 0.06 0.06 88 1003.0
20260504210055 34 0 0.0 7.0 0.00 0.06 0.06 88 1003.1
20260504205531 34 233 1.0 7.0 0.00 0.06 0.06 88 1003.1
20260504205029 34 127 0.0 5.0 0.00 0.06 0.06 88 1002.9
20260504204619 34 0 0.0 5.0 0.00 0.06 0.06 88 1002.9
20260504204030 34 290 1.0 5.0 0.00 0.06 0.06 88 1003.0
20260504203535 34 139 1.0 5.0 0.00 0.06 0.06 88 1002.9
20260504203044 34 121 0.0 4.0 0.00 0.06 0.06 88 1003.0
20260504202531 34 91 1.0 6.0 0.00 0.06 0.06 88 1002.9
20260504202030 34 168 1.0 6.0 0.00 0.06 0.06 88 1003.0
20260504201542 34 142 1.0 4.0 0.00 0.06 0.06 88 1002.9
20260504201030 34 108 0.0 4.0 0.00 0.06 0.06 88 1002.9
20260504200530 34 0 0.0 6.0 0.00 0.06 0.06 87 1003.0
20260504200053 34 279 1.0 6.0 0.00 0.06 0.06 87 1002.9
20260504195530 34 174 1.0 5.0 0.00 0.06 0.06 86 1002.9
20260504195031 34 105 2.0 6.0 0.00 0.06 0.06 85 1002.9
20260504194551 35 90 1.0 7.0 0.00 0.06 0.06 84 1002.9
20260504194031 35 160 2.0 7.0 0.00 0.06 0.06 83 1002.9
20260504193530 35 127 1.0 7.0 0.00 0.06 0.06 83 1002.8
20260504193045 35 97 2.0 7.0 0.00 0.06 0.06 82 1002.8
20260504192531 35 5 1.0 6.0 0.00 0.06 0.06 82 1002.9
20260504192031 35 325 1.0 6.0 0.00 0.06 0.06 82 1002.7
20260504191544 35 88 1.0 6.0 0.00 0.06 0.06 82 1002.7
20260504191033 35 125 1.0 8.0 0.00 0.06 0.06 82 1002.6
20260504190531 35 174 3.0 11.0 0.00 0.06 0.06 82 1002.7
20260504190050 35 119 3.0 11.0 0.00 0.06 0.06 82 1002.5
20260504185530 35 49 3.0 6.0 0.00 0.06 0.06 82 1002.4
20260504185030 36 94 1.0 5.0 0.00 0.06 0.06 81 1002.4
20260504184558 36 194 1.0 8.0 0.00 0.06 0.06 81 1002.3
20260504184030 36 139 1.0 8.0 0.00 0.06 0.06 82 1002.4
20260504183530 36 195 1.0 6.0 0.00 0.06 0.06 82 1002.4
20260504183039 36 0 2.0 8.0 0.00 0.06 0.06 82 1002.4
20260504182532 35 145 1.0 10.0 0.00 0.06 0.06 82 1002.4
20260504182034 36 146 5.0 10.0 0.00 0.06 0.06 82 1002.3
20260504181542 36 132 2.0 10.0 0.00 0.06 0.06 82 1002.2
20260504181030 36 145 2.0 10.0 0.00 0.06 0.06 81 1002.3
20260504180530 36 160 2.0 7.0 0.00 0.06 0.06 80 1002.3
20260504180042 36 92 1.0 7.0 0.00 0.06 0.06 79 1002.2
20260504175531 36 108 2.0 9.0 0.00 0.06 0.06 79 1002.1
20260504175030 36 109 2.0 9.0 0.00 0.06 0.06 78 1002.2
20260504174542 36 59 3.0 9.0 0.00 0.06 0.06 78 1002.1
20260504174031 36 25 2.0 12.0 0.00 0.06 0.06 79 1002.1
20260504173533 36 134 4.0 13.0 0.00 0.06 0.06 79 1002.0
20260504173041 36 15 4.0 13.0 0.00 0.06 0.06 78 1002.1
20260504172530 37 152 4.0 9.0 0.00 0.06 0.06 77 1001.7
20260504172030 37 159 2.0 8.0 0.00 0.06 0.06 78 1002.1
20260504171546 37 97 2.0 11.0 0.00 0.06 0.06 77 1001.8
20260504171031 37 283 4.0 13.0 0.00 0.06 0.06 76 1001.7
20260504170531 37 204 4.0 13.0 0.00 0.06 0.06 75 1001.5
20260504151034 42 202 4.0 14.0 0.00 0.06 0.06 60 1001.4
20260504150530 42 183 2.0 12.0 0.00 0.06 0.06 62 1001.5
20260504141031 42 162 2.0 11.0 0.00 0.06 0.06 65 1001.7
20260504140531 42 142 3.0 11.0 0.00 0.06 0.06 58 1001.6
20260504130530 43 212 1.0 13.0 0.00 0.06 0.06 67 1001.1
20260504110530 40 131 3.0 12.0 0.01 0.06 0.06 78 1000.8
20260504100529 43 111 5.0 13.0 0.00 0.05 0.05 59 1000.6